Weather History for Alturas, CA

Change the Weather History Date:

Friday, June 28, 2013

  Actual Average Record
Temperature  
Mean Temperature 71 °F 63 °F  
Max Temperature 97 °F 83 °F 99 °F (1956)
Min Temperature 44 °F 43 °F 32 °F (1931)
Degree Days  
Heating Degree Days 0 3  
Month to date heating degree days 156 174  
Since 1 June heating degree days 156 174  
Since 1 July heating degree days 6505 6931  
Cooling Degree Days 6 1  
Month to date cooling degree days 25 7  
Year to date cooling degree days 25 7  
Since 1 June cooling degree days 25 7  
Growing Degree Days 20 (Base 50)    
Moisture  
Dew Point 43 °F    
Average Humidity 51    
Maximum Humidity 89    
Minimum Humidity 13    
Precipitation  
Precipitation 0.00 in 0.00 in 1.16 in (1970)
Month to date precipitation 0.36 0.88  
Year to date precipitation 4.43 8.42  
Sea Level Pressure  
Sea Level Pressure 30.08 in    
Wind  
Wind Speed 4 mph (West)    
Max Wind Speed 15 mph    
Max Gust Speed 20 mph    
Visibility 10 miles    
Events      
T = Trace of Precipitation, MM = Missing Value Source: NWS Daily Summary

Daily Weather History Graph

Daily Weather History Graph

Search for Another Location

Airport:

Trip Planner

Search our weather history database for the weather conditions in past years. The results will help you decide how hot, cold, wet, or windy it might be!

Date:

Astronomy

Jun. 28, 2013 Rise Set
Actual Time 5:30 AM PDT 8:40 PM PDT
Civil Twilight 4:57 AM PDT 9:14 PM PDT
Nautical Twilight 4:13 AM PDT 9:57 PM PDT
Astronomical Twilight 3:21 AM PDT 10:49 PM PDT
Moon No Moon Rise 11:49 AM PDT (6/28)
Length of Visible Light 16h 17m
Length of Day
15h 09m
Waning Gibbous, 65% of the Moon is Illuminated
Jun 28
Waning Gibbous
Jun 29
Last Quarter
Jul 8
New
Jul 15
First Quarter
Jul 22
Full

Hourly Weather History & Observations

Time (PDT) Temp. Dew Point Humidity Pressure Visibility Wind Dir Wind Speed Gust Speed Precip Events Conditions
12:55 AM 54.0 °F 43.0 °F 66% 30.16 in 10.0 mi NNE 3.5 mph - N/A   Clear
1:55 AM 53.1 °F 44.1 °F 71% 30.16 in 10.0 mi Variable 3.5 mph - N/A   Clear
2:55 AM 48.9 °F 42.1 °F 77% 30.17 in 10.0 mi Calm Calm - N/A   Clear
3:55 AM 48.0 °F 43.0 °F 83% 30.17 in 10.0 mi Calm Calm - N/A   Clear
4:55 AM 44.1 °F 39.9 °F 85% 30.18 in 10.0 mi Calm Calm - N/A   Clear
5:55 AM 45.0 °F 41.0 °F 86% 30.19 in 10.0 mi Calm Calm - N/A   Clear
6:55 AM 54.0 °F 45.0 °F 72% 30.18 in 10.0 mi Calm Calm - N/A   Clear
7:55 AM 63.0 °F 46.0 °F 54% 30.15 in 10.0 mi Calm Calm - N/A   Clear
8:55 AM 69.1 °F 44.1 °F 40% 30.15 in 10.0 mi Calm Calm - N/A   Clear
9:55 AM 75.9 °F 46.0 °F 35% 30.12 in 10.0 mi Calm Calm - N/A   Clear
10:55 AM 81.0 °F 46.0 °F 29% 30.12 in 10.0 mi Calm Calm - N/A   Clear
11:55 AM 87.1 °F 45.0 °F 23% 30.09 in 10.0 mi Calm Calm - N/A   Clear
12:55 PM 90.0 °F 39.0 °F 17% 30.07 in 10.0 mi Variable 4.6 mph - N/A   Clear
1:55 PM 93.0 °F 35.1 °F 13% 30.04 in 10.0 mi NW 3.5 mph - N/A   Clear
2:55 PM 95.0 °F 37.0 °F 13% 30.02 in 10.0 mi Calm Calm - N/A   Clear
3:55 PM 96.1 °F 37.9 °F 13% 30.00 in 10.0 mi Variable 5.8 mph - N/A   Clear
4:55 PM 97.0 °F 39.9 °F 14% 29.99 in 10.0 mi West 8.1 mph - N/A   Clear
5:55 PM 95.0 °F 41.0 °F 15% 29.97 in 10.0 mi West 11.5 mph - N/A   Clear
6:55 PM 93.0 °F 42.1 °F 17% 29.96 in 10.0 mi West 11.5 mph - N/A   Clear
7:55 PM 88.0 °F 43.0 °F 21% 29.96 in 10.0 mi West 9.2 mph - N/A   Clear
8:55 PM 81.0 °F 44.1 °F 27% 29.98 in 10.0 mi West 8.1 mph - N/A   Clear
9:55 PM 77.0 °F 45.0 °F 32% 29.99 in 10.0 mi West 8.1 mph - N/A   Clear
10:55 PM 73.9 °F 48.0 °F 40% 30.01 in 10.0 mi West 8.1 mph - N/A   Clear
11:55 PM 72.0 °F 48.9 °F 44% 30.01 in 10.0 mi Calm Calm - N/A   Clear